This is the latest recevied weather packets stored in our database for station/object WB5CFT. If no packets are shown the sender has not sent any weather packets the latest 10 day(s).
| Time | Temp. | Humidity | Pressure | Rain* | Wind** | Luminosity | Snow |
|---|---|---|---|---|---|---|---|
| 1777287590 | 21.67° C | 22% | 1011 hPa | 0 mm | - | 0 W/m² | - |
| 1777287286 | 21.67° C | 22% | 1010.7 hPa | 0 mm | - | 0 W/m² | - |
| 1777286983 | 21.67° C | 22% | 1011 hPa | 0 mm | - | 0 W/m² | - |
| 1777286680 | 21.67° C | 22% | 1011 hPa | 0 mm | - | 0 W/m² | - |
| 1777286378 | 21.67° C | 22% | 1011 hPa | 0 mm | - | 0 W/m² | - |
| 1777286074 | 21.67° C | 22% | 1011 hPa | 0 mm | - | 0 W/m² | - |
| 1777285772 | 21.11° C | 22% | 1010.9 hPa | 0 mm | - | 0 W/m² | - |
| 1777285469 | 21.11° C | 22% | 1010.9 hPa | 0 mm | - | 0 W/m² | - |
| 1777285166 | 21.67° C | 22% | 1011 hPa | 0 mm | - | 0 W/m² | - |
| 1777284864 | 21.11° C | 22% | 1010.6 hPa | 0 mm | - | 0 W/m² | - |
| 1777284561 | 20.56° C | 22% | 1010.7 hPa | 0 mm | - | 0 W/m² | - |
| 1777284257 | 21.11° C | 22% | 1010.6 hPa | 0 mm | - | 0 W/m² | - |
| 1777283954 | 21.11° C | 22% | 1010.6 hPa | 0 mm | - | 0 W/m² | - |
| 1777283650 | 21.11° C | 22% | 1010.6 hPa | 0 mm | - | 0 W/m² | - |
| 1777283349 | 21.67° C | 22% | 1010.1 hPa | 0 mm | - | 0 W/m² | - |
| 1777283048 | 21.67° C | 22% | 1010.2 hPa | 0 mm | - | 0 W/m² | - |
| 1777282748 | 22.22° C | 21% | 1010.2 hPa | 0 mm | - | 0 W/m² | - |
| 1777282444 | 22.78° C | 21% | 1010.2 hPa | 0 mm | - | 0 W/m² | - |
| 1777282142 | 21.67° C | 21% | 1009.9 hPa | 0 mm | - | 0 W/m² | - |
| 1777281839 | 21.67° C | 21% | 1010.2 hPa | 0 mm | - | 0 W/m² | - |
| 1777281536 | 21.67° C | 22% | 1010 hPa | 0 mm | - | 0 W/m² | - |
| 1777281232 | 22.22° C | 21% | 1009.8 hPa | 0 mm | - | 0 W/m² | - |
| 1777280929 | 22.22° C | 21% | 1010 hPa | 0 mm | - | 0 W/m² | - |
| 1777280626 | 22.22° C | 21% | 1010 hPa | 0 mm | - | 0 W/m² | - |
| 1777280323 | 22.22° C | 20% | 1010.1 hPa | 0 mm | - | 0 W/m² | - |
* Rain latest hour (hover to see other rain measurements)
** Current wind speed in m/s (hover to see current wind gust speed)